CZ-4C DEB

Satellite information

Favourite Embed

Satellite Type and Status

DEBRISIN ORBIT

Key statistics

Satellite CZ-4C DEB at a glance.

Uptime

2815

Days in orbit

Revolutions

≈ 14.9

Per day

Orbit

SSO

Sun Synchronous Orbit

Inclination

97.8

Latest

Satellite identification and parameters

Extended collection of information and parameters for CZ-4C DEB.

Object identification

Identified? True

Debris? True

Object name: CZ-4C DEB

International designator: 2018-031K

Object number (NORAD): 44616

Object ID (CCSDS): 44616

Country: PEOPLES REPUBLIC OF CHINA (PRC)

Current information (Y/N): Y

RCS size: SMALL

Orbital parameters

Period: 96.357 minutes

Inclination: 97.8119 deg

SMA: 6962.252 km

Apoapsis: 587.732 km

Periapsis: 580.501 km

RAAN: 65.2084 deg

Eccentricy: 0.00051925

Argument of periapsis: 198.7224 deg

Mean anomaly: 161.3806 deg

Mean motion: 14.9443901 rev/day

Mean motion (dot): 0.00008402 rev/day2

B* drag term: 0.00078406219 1/REarth

Two-line elements (TLE)

Creation date: Dec. 10, 2025, 7:58 p.m.

Reference frame: TEME

Reference center: EARTH

Epoch: Dec. 10, 2025, 11:44 a.m. UTC

TLE line 0: 0 CZ-4C DEB

TLE line 1: 1 44616U 18031K 25344.48930210 .00008402 00000-0 78406-3 0 9991

TLE line 2: 2 44616 97.8119 65.2084 0005192 198.7224 161.3806 14.94439010398014

Live tracking on map

Real-time ground track for satellite CZ-4C DEB.

In-orbit conjunctions

A list of the most updated potential collisions computed for object CZ-4C DEB.

Target Orbit TCA Probability of collision Miss distance Type
SAUDISAT 1A LEO 2024-11-27 18:13:47 0.0003564212 370.0 (m) PAYLOAD

Associated space launch

Gaofen is a series of Chinese civilian Earth observation satellites. These three satellites are to be operated together with the Gaofen-1 satellite, which was launched in 2013.

CZ-4C DEB was lifted into orbit during the mission ‘Long March 4C | Gaofen 1-02, 1-03 & 1-04’, on board a Long March 4C space rocket.

The launch took place on March 31, 2018, 3:22 a.m. from Launch Complex 9.

For more information about the launch, click the button.

Launch to space Long March 4C | Gaofen 1-02, 1-03 & 1-04
Long March 4C | Gaofen 1-02, 1-03 & 1-04

Agency: N/A

Status: Launch Successful

Launch date: March 31, 2018, 3:22 a.m. UTC

Rocket: Long March 4C

Launch pad: Launch Complex 9

Location: Taiyuan Satellite Launch Center, People's Republic of China

...

Latest news about this satellite

There are no fresh news available about this satellite. Check back as we update our databases every day.


Newsletter sign-up

Weekly statistics, charts and insights to help you stay on top of the space industry.